Valparaiso, IN

8:27 PM CDT on July 23, 2017 (GMT -0500)
Porter County Municipal

Weather History for KVPZ - February, 2014

Change the Weather History Date:

Saturday, February 15, 2014

  Actual Average Record
Temperature  
Mean Temperature 13 °F 28 °F  
Max Temperature 20 °F 35 °F 55 °F (1999)
Min Temperature 6 °F 20 °F -1 °F (2015)
Degree Days  
Heating Degree Days 52 38  
Month to date heating degree days 824 590  
Since 1 July heating degree days 4896 4275  
Cooling Degree Days 0 0  
Month to date cooling degree days 0 0  
Year to date cooling degree days 0 0  
Moisture  
Dew Point 9 °F    
Average Humidity 84    
Maximum Humidity 96    
Minimum Humidity 68    
Precipitation  
Precipitation 0.01 in 0.04 in 0.28 in (2005)
Month to date precipitation 0.37 0.73  
Year to date precipitation 1.32 2.48  
Sea Level Pressure  
Sea Level Pressure 30.03 in    
Wind  
Wind Speed 7 mph (SW)    
Max Wind Speed 14 mph    
Max Gust Speed 15 mph    
Visibility 7 miles    
Events Snow    
T = Trace of Precipitation, MM = Missing Value Source: NWS Daily Summary

Daily Weather History Graph

Daily Weather History Graph

Search for Another Location

Airport or City:

Trip Planner

Search our weather history database for the weather conditions in past years. The results will help you decide how hot, cold, wet, or windy it might be!

Date:

Astronomy

Feb. 15, 2014 Rise Set
Actual Time 6:43 AM CST 5:21 PM CST
Civil Twilight 6:14 AM CST 5:50 PM CST
Nautical Twilight 5:42 AM CST 6:22 PM CST
Astronomical Twilight 5:10 AM CST 6:54 PM CST
Moon 6:22 PM CST (2/15) 6:40 AM CST (2/15)
Length of Visible Light 11h 35m
Length of Day
10h 38m
Waxing Gibbous, 99% of the Moon is Illuminated
Feb 15
Waxing Gibbous
Feb 22
Last Quarter
Mar 1
New
Mar 8
First Quarter
Mar 16
Full

Hourly Weather History & Observations

Time (CST) Temp. Windchill Dew Point Humidity Pressure Visibility Wind Dir Wind Speed Gust Speed Precip Events Conditions
12:10 AM 16.0 °F 2.3 °F 12.9 °F 88% 29.90 in 5.0 mi West 12.7 mph - 0.00 in Snow Light Snow
12:53 AM 16.0 °F 2.9 °F 12.9 °F 88% 29.95 in 4.0 mi West 11.5 mph - 0.00 in Snow Light Snow
1:53 AM 15.1 °F 3.3 °F 10.9 °F 84% 29.96 in 8.0 mi WNW 9.2 mph - 0.00 in   Overcast
2:14 AM 15.1 °F 2.5 °F 10.0 °F 80% 29.94 in 10.0 mi WNW 10.4 mph - N/A   Overcast
2:51 AM 12.2 °F 0.7 °F 8.6 °F 85% 29.96 in 10.0 mi WNW 8.1 mph - N/A   Overcast
2:53 AM 12.0 °F 0.5 °F 8.1 °F 84% 30.00 in 10.0 mi WNW 8.1 mph - N/A   Overcast
3:21 AM 9.0 °F -2.2 °F 6.1 °F 88% 29.97 in 10.0 mi West 6.9 mph - N/A   Mostly Cloudy
3:34 AM 9.0 °F -2.2 °F 6.1 °F 88% 29.97 in 10.0 mi West 6.9 mph - N/A   Scattered Clouds
3:53 AM 10.0 °F 0.4 °F 6.1 °F 84% 30.03 in 10.0 mi WNW 5.8 mph - N/A   Clear
4:53 AM 7.0 °F -3.3 °F 3.9 °F 87% 30.05 in 10.0 mi West 5.8 mph - N/A   Clear
5:21 AM 8.1 °F -3.2 °F 5.0 °F 87% 30.01 in 10.0 mi WNW 6.9 mph - N/A   Mostly Cloudy
5:53 AM 10.0 °F -0.9 °F 6.1 °F 84% 30.06 in 10.0 mi WNW 6.9 mph - N/A   Overcast
6:53 AM 10.0 °F -0.9 °F 7.0 °F 87% 30.07 in 10.0 mi WNW 6.9 mph - N/A   Overcast
7:53 AM 10.0 °F 3.6 °F 6.1 °F 84% 30.08 in 9.0 mi WSW 3.5 mph - N/A   Mostly Cloudy
8:08 AM 10.0 °F 3.6 °F 6.1 °F 84% 30.03 in 8.0 mi West 3.5 mph - N/A   Scattered Clouds
8:53 AM 12.0 °F 4.1 °F 7.0 °F 80% 30.11 in 8.0 mi SW 4.6 mph - N/A   Clear
9:53 AM 17.1 °F 7.6 °F 12.9 °F 84% 30.11 in 10.0 mi West 6.9 mph - N/A   Clear
10:53 AM 18.0 °F 8.7 °F 10.0 °F 71% 30.13 in 10.0 mi South 6.9 mph - N/A   Clear
11:53 AM 19.0 °F 9.0 °F 10.0 °F 68% 30.12 in 10.0 mi SSW 8.1 mph - N/A   Clear
12:53 PM 19.0 °F 8.2 °F 12.0 °F 74% 30.09 in 10.0 mi SSW 9.2 mph - N/A   Clear
1:53 PM 19.0 °F 7.5 °F 12.0 °F 74% 30.09 in 10.0 mi SW 10.4 mph - N/A   Clear
2:53 PM 18.0 °F 6.1 °F 10.9 °F 74% 30.09 in 10.0 mi SSW 10.4 mph - N/A   Clear
3:53 PM 16.0 °F 4.4 °F 9.0 °F 74% 30.09 in 10.0 mi SSW 9.2 mph - N/A   Partly Cloudy
4:53 PM 14.0 °F 2.0 °F 7.0 °F 74% 30.08 in 10.0 mi SSW 9.2 mph - N/A   Overcast
5:53 PM 12.9 °F 0.7 °F 6.1 °F 74% 30.06 in 10.0 mi SSE 9.2 mph - N/A   Mostly Cloudy
6:53 PM 12.9 °F 2.6 °F 7.0 °F 77% 30.08 in 10.0 mi South 6.9 mph - N/A   Overcast
7:53 PM 12.9 °F 5.2 °F 7.0 °F 77% 30.07 in 10.0 mi South 4.6 mph - N/A   Overcast
8:53 PM 14.0 °F 6.5 °F 8.1 °F 77% 30.07 in 5.0 mi South 4.6 mph - 0.00 in Snow Light Snow
9:08 PM 12.9 °F 3.8 °F 9.0 °F 84% 30.02 in 2.5 mi South 5.8 mph - 0.00 in Snow Light Snow
9:18 PM 12.9 °F 5.2 °F 10.0 °F 88% 30.01 in 1.2 mi SSE 4.6 mph - 0.00 in Snow Light Snow
9:53 PM 12.9 °F 3.8 °F 12.0 °F 96% 30.04 in 2.0 mi SSE 5.8 mph - 0.00 in Snow Light Snow
10:07 PM 12.9 °F 5.2 °F 10.9 °F 92% 29.99 in 1.5 mi SE 4.6 mph - 0.00 in Snow Light Snow
10:38 PM 14.0 °F 8.2 °F 12.0 °F 92% 29.99 in 3.0 mi South 3.5 mph - 0.00 in Snow Light Snow
10:45 PM 14.0 °F 6.5 °F 12.0 °F 92% 29.99 in 2.5 mi South 4.6 mph - 0.00 in Snow Light Snow
10:53 PM 14.0 °F 5.1 °F 12.0 °F 92% 30.03 in 1.2 mi SSE 5.8 mph - 0.00 in Snow Light Snow
11:12 PM 14.0 °F 5.1 °F 12.9 °F 95% 29.97 in 2.0 mi SSE 5.8 mph - 0.01 in Snow Light Snow
11:18 PM 14.0 °F 2.9 °F 12.0 °F 92% 29.96 in 3.0 mi SSE 8.1 mph - 0.01 in Snow Light Snow
11:25 PM 14.0 °F 3.9 °F 12.9 °F 95% 29.96 in 4.0 mi SSE 6.9 mph - 0.01 in Snow Light Snow
11:53 PM 15.1 °F 5.2 °F 12.9 °F 91% 29.99 in 6.0 mi SSE 6.9 mph - 0.01 in   Overcast